Location: ???????
(55.9868°N, 39.3589°E)
Time: 06:03:35
(UTC+00:00)

Daily predictions for brighter satellites

Satellite Brightness Start Highest point End
(mag) Time Altitude Azimuth Time Altitude Azimuth Time Altitude Azimuth
ATLAS 3B R/B 4.0 17:13:18 10° W 17:20:56 49° N 17:28:29 10° ENE
Cosmos 1674 Rocket 3.5 17:20:14 10° N 17:24:36 83° ENE 17:28:58 10° SSE
Cosmos 2366 rocket 4.2 17:19:06 10° SSW 17:25:15 81° WNW 17:31:27 10° N
Cosmos 1727 Rocket 4.1 17:19:55 10° NNW 17:26:19 86° ENE 17:32:38 10° S
IRS-1A Rocket 4.4 17:27:56 10° SSE 17:33:36 79° ENE 17:39:24 10° NNW
MetOp-B 4.3 17:28:55 10° SSE 17:34:17 84° WSW 17:39:42 10° NNW
Cosmos 44 4.1 17:30:01 10° S 17:34:37 35° ESE 17:39:25 10° ENE
Okean-O 2.8 17:30:45 10° SE 17:35:02 56° ENE 17:39:20 10° N
Cosmos 1378 Rocket 4.3 17:32:25 10° NNW 17:36:44 57° W 17:40:59 10° S
SL-16 R/B 2.7 17:32:03 10° S 17:37:14 38° ESE 17:42:28 10° NE
Intercosmos 24 Rocket 4.4 17:32:39 10° S 17:37:21 81° ESE 17:41:03 10° NNE
Cosmos 1908 Rocket 4.0 17:34:25 10° SSE 17:38:27 40° E 17:42:29 10° NNE
NOSS 3-1 (C) 4.0 17:33:21 10° NW 17:39:55 81° SW 17:48:17 10° SE
CZ-4B R/B 4.1 17:35:58 10° SE 17:40:20 37° ENE 17:44:41 10° N
Ariane Rocket 3.9 17:37:17 10° SE 17:41:50 35° ENE 17:46:23 10° N
CZ-2C R/B 3.9 17:41:05 10° ESE 17:43:10 18° ENE 17:45:15 10° NNE
Okean O Rocket 1.6 17:39:22 10° SSE 17:43:39 68° ENE 17:47:58 10° NNW
NOSS 3-4 (A) 3.3 17:39:10 10° SW 17:44:35 88° NW 17:50:47 10° NE
Cosmos 1269 Rocket 4.4 17:39:27 10° NNW 17:44:39 54° NE 17:49:38 11° SE
NOSS 3-4 (C) 3.3 17:39:41 10° SW 17:45:07 89° NW 17:51:21 10° NE
Cosmos 2084 Rocket 3.5 17:42:55 10° WSW 17:47:01 76° NNW 17:51:11 10° NE
MOS 1-B 4.4 17:41:25 10° SSE 17:47:11 77° ENE 17:53:00 10° NNW
Cosmos 1140 Rocket 3.7 17:43:03 10° NNW 17:48:10 59° ENE 17:52:57 11° SE
ATLAS 5 CENTAUR R/B 2.2 17:44:42 10° NW 17:48:11 42° NNE 17:52:23 10° E
Spot 2 Rocket 3.5 17:44:07 10° SSE 17:49:07 79° ENE 17:54:09 10° NNW
CZ-4 R/B 3.0 17:47:55 10° SSW 17:51:15 31° W 17:54:34 10° NNW
Cosmos 1025 Rocket 3.5 17:49:28 10° NNW 17:53:41 62° W 17:57:54 10° S
Cosmos 2123 Rocket 4.0 17:48:44 10° N 17:55:03 81° ENE 18:01:23 10° SSE
Cosmos 1818 4.4 17:51:11 10° NW 17:56:27 45° NNE 18:01:42 10° E
USA 245 4.3 17:52:19 10° SE 17:57:08 59° ENE 18:02:45 10° N
Meteor 2-8 Rocket 4.4 17:51:18 10° S 17:57:21 78° E 18:03:26 10° NNE
Helios 1A Rocket 2.9 17:54:35 10° N 17:57:46 60° WNW 18:00:56 10° SSW
Cosmos 2239 Rocket 4.5 17:53:28 10° S 17:59:40 83° E 18:05:59 10° NNE
Terra 2.5 17:55:54 10° S 18:00:29 52° W 18:05:06 10° NNW
Cosmos 1821 Rocket 4.4 17:54:34 10° SSW 18:00:52 70° WNW 18:07:17 10° N
Cosmos 1733 Rocket 4.1 17:57:36 10° SSW 18:01:52 49° WNW 18:06:11 10° N
Cosmos 407 Rocket 4.1 17:59:40 10° NNW 18:04:37 45° NE 18:08:45 14° ESE
Cosmos 2237 Rocket 2.9 17:59:31 10° SW 18:05:10 62° NW 18:10:51 10° NNE
Cosmos 1980 4.5 18:01:35 10° SW 18:07:09 57° NW 18:12:45 10° NNE
COSMOS 2455 3.0 18:03:54 10° NW 18:09:57 70° NE 18:15:03 15° SE
Cosmos 1174 3.2 18:07:15 10° NW 18:10:37 75° SW 18:12:41 19° SE
Cosmos 2150 Rocket 4.0 18:06:38 10° S 18:11:42 60° ESE 18:16:52 10° NNE
Cosmos 1862 3.6 18:08:56 10° N 18:12:23 41° ENE 18:14:41 18° SE
Cosmos 371 Rocket 4.0 18:08:05 10° NNW 18:12:42 42° NE 18:16:22 15° ESE
Cosmos 2058 3.4 18:10:32 10° N 18:14:17 41° ENE 18:16:50 18° SE
Cosmos 1346 Rocket 4.3 18:12:44 10° NNW 18:15:55 30° W 18:19:06 10° SSW
Cosmos 1300 Rocket 3.6 18:11:50 10° S 18:16:01 56° E 18:20:15 10° NNE
Cosmos 2297 4.3 18:18:03 10° NW 18:23:39 55° WSW 18:28:49 12° S
ARIANE 6 FM1 Upper Stage 3.9 18:20:02 10° WNW 18:23:49 37° N 18:27:33 10° E
Cosmos 1605 Rocket 4.2 18:18:22 11° SSE 18:24:00 50° E 18:29:55 10° NNE
SJ 16-02 2.3 18:20:50 10° NNW 18:24:46 34° NE 18:27:33 17° ESE
ASTEX 1 3.8 18:21:34 10° S 18:26:27 65° W 18:31:23 10° N
Cosmos 2369 Rocket 3.0 18:22:45 10° NW 18:28:06 46° WSW 18:33:12 11° S
USA 234 3.4 18:23:34 10° ENE 18:29:53 48° SE 18:36:11 10° SW
SPOT 3 Rocket 3.5 18:27:43 15° SSE 18:32:07 89° W 18:37:20 10° NNW
SL-08 R/B 3.7 18:28:09 10° NNE 18:33:04 73° WNW 18:37:57 10° SSW
Cosmos 1869 3.0 18:32:38 10° SSW 18:36:11 82° WNW 18:39:47 10° N
Cosmos 1697 Rocket 4.2 18:31:50 10° NNW 18:36:44 29° NNE 18:41:36 10° E
Cosmos 1315 Rocket 2.8 18:34:16 18° S 18:36:52 54° E 18:40:32 10° NNE
Cosmos 2285 Rocket 4.0 18:31:58 10° SSW 18:38:21 83° ESE 18:44:42 10° NNE
NOSS 3-1 (A) 4.0 18:32:57 10° NW 18:39:36 77° SW 18:45:57 19° SE
YAOGAN 11 4.1 18:35:43 10° NNE 18:40:01 82° WNW 18:44:20 10° SSW
SeaSat 1 3.6 18:37:30 13° E 18:41:23 35° NE 18:45:49 10° NNW
RESURS DK-1 4.2 18:40:57 10° WSW 18:44:34 33° NW 18:48:12 10° NNE
Lacrosse 5 rocket 0.6 18:41:50 10° WNW 18:45:00 69° SSW 18:46:17 32° SE
USA 186 3.6 18:43:58 10° SW 18:45:40 18° W 18:47:27 10° NW
Meteor 2-3 Rocket 4.4 18:40:51 10° N 18:46:08 40° ENE 18:49:32 20° ESE
Cosmos 2346 Rocket 4.5 18:41:15 10° NNW 18:47:27 87° ENE 18:52:18 18° SSE
Cosmos 1943 3.4 18:42:48 10° S 18:48:15 50° ESE 18:53:43 10° NE
Cosmos 405 Rocket 3.5 18:47:44 10° NNW 18:50:26 32° W 18:52:20 16° SSW
Cosmos 921 Rocket 3.1 18:46:27 10° NNW 18:50:53 72° WSW 18:53:31 23° SSE
IRS-1C Rocket 4.2 18:50:49 18° S 18:54:47 75° WSW 19:00:06 10° NNW
CZ-4B R/B 3.3 18:52:52 19° SSW 18:55:04 45° W 18:58:21 10° NNW
Cosmos 1975 Rocket 3.4 18:51:27 10° NNW 18:55:51 63° W 18:58:58 19° S
SL-8 R/B 4.4 18:52:45 10° SW 18:56:56 32° S 18:58:20 27° SE
Cosmos 1980 Rocket 4.0 18:52:22 10° NNW 18:57:03 25° NNE 19:01:42 10° E
Helios 1B rocket 3.2 19:01:12 25° E 19:02:22 31° ENE 19:05:32 10° N
Cosmos 1356 Rocket 3.2 19:01:13 23° S 19:03:41 75° E 19:07:41 10° NNE
Cosmos 1190 Rocket 4.3 18:58:53 10° NNW 19:04:08 59° NE 19:07:08 25° SE
Okean 1 Rocket 4.4 19:03:47 21° ESE 19:04:42 23° E 19:08:08 10° NE
Cosmos 304 Rocket 3.7 19:01:40 10° NNW 19:06:27 81° WSW 19:08:57 28° SSE
Helios 1A 3.9 19:06:39 10° NE 19:10:05 28° E 19:10:37 27° ESE
Okean 2 Rocket 4.1 19:10:05 26° ESE 19:11:11 29° E 19:15:03 10° NNE
ATLAS 3B R/B 3.6 19:05:16 10° WNW 19:13:03 57° NNE 19:20:35 10° E
CZ-2C R/B 3.2 19:12:52 26° SW 19:13:54 35° W 19:16:35 10° NNW
Cosmos 2360 4.3 19:09:06 10° NNW 19:14:48 70° NE 19:18:05 26° SE
Cosmos 44 3.8 19:10:18 10° WSW 19:15:30 70° NW 19:20:55 10° NE
Geosat 4.3 19:13:00 10° NNE 19:18:00 70° NW 19:22:58 10° SW
Cosmos 1656 3.6 19:13:09 10° NNW 19:18:38 79° NE 19:21:34 29° SE
CZ-4B R/B 4.3 19:15:34 17° SSW 19:18:56 42° W 19:23:28 10° NNW
Okean O Rocket 3.8 19:17:08 10° SW 19:20:18 20° W 19:23:28 10° NW
Ariane Rocket 3.6 19:17:09 19° SSW 19:20:36 49° W 19:25:31 10° NNW
SL-16 R/B 2.9 19:15:37 10° SW 19:21:12 57° NW 19:26:50 10° NNE
ATLAS 5 CENTAUR R/B 1.7 19:26:31 10° WNW 19:30:23 58° SW 19:31:55 37° SSE
Cosmos 332 Rocket 4.2 19:26:17 10° NNW 19:31:02 53° NE 19:33:12 29° ESE
Cosmos 1954 Rocket 4.0 19:29:23 10° NNW 19:34:39 80° ENE 19:36:59 34° SE
Cosmos 1420 Rocket 4.5 19:34:10 33° SSE 19:35:44 42° ESE 19:40:42 10° NE
NOSS 3-4 (A) 4.5 19:30:34 10° W 19:36:01 46° N 19:42:20 10° ENE
NOSS 3-4 (C) 4.5 19:31:05 10° W 19:36:34 46° N 19:42:54 10° ENE
Cosmos 676 Rocket 4.1 19:32:52 10° NNW 19:38:10 68° ENE 19:40:34 32° SE
Cosmos 1833 Rocket 4.2 19:38:01 18° ESE 19:38:22 18° E 19:42:00 10° ENE
USA 229 DEB 4.1 19:32:05 10° NW 19:39:12 71° NNE 19:45:50 16° ESE
USA 229 4.1 19:32:08 10° NW 19:39:15 70° NNE 19:45:57 16° ESE
Cosmos 1818 3.6 19:34:53 10° NW 19:40:20 69° SW 19:42:40 35° SSE
Cosmos 1725 Rocket 4.4 19:39:35 30° SE 19:42:19 47° E 19:48:18 10° NNE
Cosmos 1153 Rocket 4.5 19:38:14 21° SSW 19:42:34 87° WNW 19:48:56 10° NNE
Cosmos 1459 Rocket 4.1 19:42:23 30° SSE 19:45:39 66° E 19:51:52 10° NNE
Cosmos 407 Rocket 4.3 19:41:44 10° NW 19:46:30 40° WSW 19:48:51 25° SSW
Sich 1 Rocket 3.9 19:49:08 42° SE 19:50:03 49° E 19:54:17 10° NNE
ALOS 2 3.4 19:48:44 30° ESE 19:50:14 40° ENE 19:54:22 10° N
ATLAS 2AS CENTAUR R/B 3.7 19:50:46 24° ESE 19:51:26 24° ESE 19:56:41 10° ENE
Spot 4 4.3 19:50:21 33° ESE 19:52:06 51° ENE 19:56:43 10° N
Cosmos 371 Rocket 4.1 19:48:24 10° NW 19:52:55 40° WSW 19:54:49 28° SSW
SL-16 R/B 4.4 19:50:49 10° NNW 19:55:10 22° NNE 19:59:30 10° ENE
COSMOS 2455 3.8 19:50:09 10° NW 19:55:34 35° WSW 19:58:10 25° SSW
ARIANE 5 R/B 3.0 19:55:21 38° ESE 19:56:38 53° ENE 20:00:56 10° N
Meteor 2-1 Rocket 4.3 19:55:14 34° S 19:57:46 66° E 20:03:28 10° NNE
Cosmos 1802 Rocket 4.1 19:56:06 33° SSE 19:58:55 62° E 20:05:05 10° NNE
Cosmos 2251 Rocket 3.8 19:55:46 10° NNW 20:01:01 59° WSW 20:03:03 36° S
Cosmos 2056 Rocket 4.1 20:00:22 36° SE 20:01:32 40° ESE 20:06:33 10° NE
SJ 16-02 2.1 19:58:55 10° NW 20:02:56 41° WSW 20:04:02 33° SW
ARIANE 6 FM1 Upper Stage 2.5 19:59:10 10° NW 20:03:11 86° NNE 20:04:06 52° ESE
Cosmos 2228 4.1 20:06:04 28° E 20:06:22 28° E 20:09:57 10° NNE
Cosmos 1536 Rocket 4.2 20:02:57 10° NNW 20:07:05 46° W 20:08:30 33° SW
Cosmos 1624 Rocket 4.4 20:08:12 38° SE 20:09:09 43° ESE 20:14:02 10° NE
CZ-2C R/B 4.0 20:06:14 19° ESE 20:09:17 32° ENE 20:13:59 10° N
Cosmos 292 Rocket 3.9 20:06:49 10° NNW 20:11:38 65° ENE 20:13:14 40° SE
IKONOS-2 4.4 20:07:35 10° NNE 20:11:43 80° WNW 20:12:54 45° SSW
USA 234 3.2 20:06:45 10° ENE 20:13:21 86° SSE 20:19:56 10° WSW
Cosmos 2016 Rocket 4.1 20:10:38 35° SSE 20:13:23 67° E 20:19:39 10° NNE
Cosmos 1743 2.4 20:15:25 10° N 20:18:06 63° NNE 20:18:06 63° NNE
SeaSat 1 2.5 20:17:06 44° S 20:18:33 67° WSW 20:23:27 10° NW
Cosmos 1626 Rocket 4.3 20:16:56 10° N 20:21:01 40° ENE 20:22:02 34° ESE
Lacrosse 5 rocket 3.2 20:18:51 10° W 20:19:32 13° WSW 20:19:32 13° WSW
Cosmos 1697 Rocket 2.6 20:15:46 10° NW 20:21:28 84° NE 20:23:43 38° SE
Cosmos 2173 Rocket 4.0 20:18:49 28° SSW 20:22:10 74° WNW 20:28:19 10° N
SAR-Lupe-2 3.3 20:27:23 77° NE 20:27:23 77° NE 20:30:39 10° NNW
Meteor 2-3 Rocket 4.4 20:24:07 10° NNW 20:29:27 45° W 20:31:47 29° SW
Cosmos 1603 3.8 20:26:12 20° SW 20:30:11 77° NW 20:35:56 10° NNE
Cosmos 1892 Rocket 3.6 20:26:41 10° NNW 20:31:06 69° W 20:31:59 52° SSW
Cosmos 1943 4.2 20:26:55 10° WSW 20:32:23 46° NW 20:37:51 10° NNE
Helios 1B rocket 3.3 20:35:11 29° WSW 20:35:24 29° W 20:38:32 10° NW
Cosmos 1782 2.9 20:37:18 51° ENE 20:37:18 51° ENE 20:40:27 10° NNE
Cosmos 2151 3.7 20:35:46 10° N 20:39:46 42° ENE 20:40:35 37° E
Cosmos 1980 Rocket 2.5 20:36:24 10° NNW 20:42:06 65° NE 20:44:56 30° ESE
Okean 1 Rocket 3.5 20:40:47 38° SW 20:42:08 54° WNW 20:46:27 10° N
Cosmos 1371 Rocket 3.9 20:43:06 46° S 20:44:39 74° ESE 20:49:59 10° NNE
Tsikada Rocket 4.0 20:38:35 10° NNW 20:44:53 73° W 20:47:21 38° S
Helios 1A 3.9 20:41:09 10° N 20:44:54 41° WNW 20:46:20 29° WSW
Cosmos 968 Rocket 3.5 20:40:51 10° NNW 20:46:02 67° WSW 20:47:23 47° S
ARGOS Delta rocket 4.2 20:43:43 10° NNE 20:48:05 46° E 20:48:48 43° SE
Okean 2 Rocket 3.9 20:47:17 30° WSW 20:49:00 44° WNW 20:53:18 10° N
CZ-2C R/B 3.5 20:46:08 10° NNE 20:50:34 90° SE 20:51:25 58° SSW
MetOp-A 4.0 20:50:07 46° SSE 20:51:39 79° ENE 20:56:48 10° NNW
Cosmos 1455 Rocket 3.1 20:51:51 55° SSW 20:52:47 77° WNW 20:57:14 10° N
Cosmos 2061 Rocket 3.9 20:50:51 41° S 20:53:13 80° E 20:59:27 10° NNE
Cosmos 1741 Rocket 3.9 20:49:03 10° NNW 20:54:23 85° WSW 20:55:57 48° SSE
Cosmos 2369 4.4 20:49:42 10° NNW 20:55:16 50° NE 20:59:04 20° ESE
Meteor 1-27 4.2 20:58:39 41° SSW 21:00:48 84° WNW 21:06:33 10° NNE
Cosmos 1805 4.4 20:58:59 10° N 21:01:50 27° ENE 21:01:57 27° ENE
Cosmos 1544 Rocket 4.1 21:01:24 43° ESE 21:01:54 45° E 21:06:07 10° NNE
Cosmos 1452 Rocket 4.2 21:01:25 35° SE 21:02:11 37° ESE 21:06:58 10° NE
ATLAS 3B R/B 2.9 20:56:28 10° NW 21:04:21 78° SW 21:08:29 30° SE
Cosmos 1758 Rocket 3.4 21:02:39 10° NNW 21:06:58 89° E 21:07:33 66° SSE
Cosmos 2360 Rocket 4.2 21:03:31 10° NNW 21:08:19 27° NNE 21:13:06 10° E
ATLAS 5 CENTAUR R/B 3.8 21:09:49 10° W 21:11:03 13° WSW 21:11:03 13° WSW
Cosmos 2333 Rocket 3.6 21:07:53 10° NNW 21:13:05 35° NE 21:18:16 10° ESE
Cosmos 1867 4.1 21:13:28 38° SE 21:13:56 39° ESE 21:18:59 10° NE
Aureole 3 Rocket 3.7 21:12:40 46° S 21:14:22 89° E 21:21:24 10° NNE
BREEZE-M DEB (TANK) 4.0 21:06:01 10° WSW 21:14:39 42° S 21:19:21 10° ESE
Cosmos 1833 Rocket 2.6 21:19:39 45° SSW 21:21:24 77° ESE 21:27:03 10° NE
Cosmos 2082 Rocket 3.6 21:21:03 22° ESE 21:22:13 24° ESE 21:26:41 10° NE
Cosmos 2322 Rocket 3.9 21:19:31 10° NNW 21:24:31 31° NNE 21:29:30 10° E
ALOS 2 3.6 21:26:08 33° WSW 21:26:39 34° W 21:30:41 10° NNW
CZ-2C R/B 3.2 21:21:33 10° NNE 21:26:46 66° ESE 21:28:17 45° SSE
Cosmos 1933 3.6 21:27:11 51° E 21:27:12 51° E 21:30:55 10° NNE
NOSS 3-4 (A) 4.5 21:22:08 10° WNW 21:28:00 49° NNE 21:34:51 10° E
USA 229 DEB 4.2 21:23:03 10° NW 21:30:09 52° SW 21:33:11 35° S
USA 229 4.2 21:23:06 10° NW 21:30:13 53° SW 21:33:18 35° S
Cosmos 1825 Rocket 4.0 21:27:31 10° N 21:31:45 53° ENE 21:32:44 43° ESE
ARIANE 5 R/B 4.0 21:32:43 24° WSW 21:33:15 25° W 21:36:53 10° NW
PSLV R/B 3.7 21:32:21 10° N 21:36:27 60° WNW 21:37:12 50° WSW
Cosmos 1602 Rocket 3.3 21:32:14 10° NNW 21:36:34 81° W 21:37:06 67° SSW
Cosmos 2219 Rocket 4.2 21:32:19 10° NNW 21:37:05 27° NNE 21:41:51 10° E
Cosmos 1428 Rocket 4.5 21:32:44 10° N 21:39:08 82° E 21:41:47 37° SSE
SL-16 R/B 3.0 21:35:05 10° NNW 21:40:36 49° NE 21:46:04 10° ESE
ATLAS 2AS CENTAUR R/B 2.6 21:38:07 33° SW 21:41:26 76° SE 21:48:14 10° NE
Cosmos 1437 Rocket 3.1 21:42:18 45° E 21:42:18 45° E 21:45:24 10° NNE
Cosmos 2228 3.8 21:42:18 36° WSW 21:43:11 41° WNW 21:47:09 10° N
Cosmos 1302 Rocket 4.4 21:42:24 40° SE 21:43:29 47° ESE 21:48:26 10° NE
Cosmos 2056 Rocket 4.3 21:40:33 24° WSW 21:43:33 48° NW 21:48:48 10° NNE
Cosmos 1900 4.3 21:43:40 54° S 21:44:40 70° SE 21:49:35 10° NE
Landsat 5 3.5 21:44:18 10° NNE 21:48:33 65° ESE 21:49:08 57° SE
Cosmos 1331 Rocket 4.0 21:47:26 45° SW 21:49:06 85° WNW 21:54:24 10° NNE
CZ-2C R/B 2.8 21:47:40 44° SSW 21:49:14 63° WSW 21:54:37 10° NNW
Nadezhda 4 Rocket 3.9 21:50:05 10° NNW 21:56:15 73° W 21:58:32 40° S
USA 234 3.3 21:49:52 10° E 21:56:26 83° N 22:03:01 10° W
SeaSat 1 4.4 21:56:42 14° WSW 21:56:46 14° WSW 21:59:26 10° WNW
ACS3 Solar Sail 2.6 21:52:38 10° NNE 21:58:19 40° E 22:01:09 26° SE
Cosmos 2237 4.1 21:53:19 10° NW 21:59:06 85° SW 22:01:43 34° SSE
Okean 1 3.9 21:59:16 37° E 21:59:22 37° E 22:02:40 10° NNE
Meteor 1-25 Rocket 4.4 21:55:05 10° NNW 22:00:48 60° W 22:02:37 41° SSW
Timation 1 Rocket 4.3 21:59:52 41° SSW 22:02:03 76° ESE 22:08:05 10° NE
Cosmos 2098 Rocket 3.6 22:00:15 44° S 22:02:11 84° E 22:07:45 10° NNE
Cosmos 1766 4.2 21:59:52 10° N 22:02:47 31° ENE 22:03:17 29° E
IDEFIX/ARIANE 42P 4.4 21:59:02 10° NE 22:02:59 22° E 22:05:39 15° SE
Cosmos 1697 Rocket 4.0 22:00:27 10° NW 22:04:49 24° WSW 22:05:24 23° WSW
Cosmos 1110 Rocket 4.3 22:04:28 36° SW 22:06:34 64° WNW 22:11:52 10° NNE
Cosmos 1464 Rocket 3.9 22:09:27 39° SSW 22:11:55 81° WNW 22:18:06 10° N
DELTA 2 DEB (DPAF) 3.4 22:09:36 10° NNE 22:13:13 78° ESE 22:13:23 75° SE
Cosmos 2195 Rocket 4.5 22:07:38 10° NNW 22:13:59 78° W 22:16:42 37° S
Cosmos 1536 3.6 22:11:00 10° N 22:14:29 40° ENE 22:15:33 31° ESE
Cosmos 2151 4.2 22:12:50 10° NNW 22:16:23 27° W 22:16:37 27° W
Cosmos 1606 Rocket 3.5 22:18:28 55° S 22:19:26 85° E 22:23:52 10° NNE
USA 281 3.4 22:13:32 10° SE 22:20:04 70° NE 22:26:37 10° NNW
CZ-4C R/B 2.3 22:20:44 38° SSE 22:21:32 41° SE 22:26:45 10° ENE
PSLV R/B 4.3 22:18:15 10° NNE 22:21:58 47° E 22:22:35 42° SE
GP-B 3.3 22:20:45 10° N 22:25:07 64° E 22:26:26 42° SSE
Meteor 1-5 Rocket 4.4 22:20:05 10° NNW 22:25:18 53° W 22:26:56 39° SSW
Okean 1-7 Rocket 4.0 22:21:18 10° NNW 22:25:30 45° W 22:26:05 43° WSW
Cosmos 1980 Rocket 3.0 22:20:46 10° NW 22:25:48 33° WSW 22:26:39 31° SW
Cosmos 2026 Rocket 4.0 22:20:01 10° NNW 22:26:17 76° W 22:29:09 35° S
Meteor 2-10 4.3 22:21:12 10° NNW 22:26:34 58° W 22:28:25 39° SSW
Cosmos 1076 Rocket 3.5 22:23:21 10° NNW 22:27:40 67° W 22:28:27 53° SSW
CZ-4C R/B 3.1 22:30:08 10° N 22:33:13 54° WNW 22:33:13 54° WNW
Cosmos 1975 4.4 22:30:20 10° N 22:33:31 27° ENE 22:35:52 15° ESE
Cosmos 1503 Rocket 4.5 22:28:53 10° NNW 22:34:09 60° NE 22:39:07 11° SE
Cosmos 2034 Rocket 4.0 22:31:16 35° SSW 22:34:11 82° WNW 22:40:36 10° N
Cosmos 1805 4.3 22:32:40 10° NNW 22:34:56 26° WNW 22:34:56 26° WNW
Cosmos 2058 Rocket 3.6 22:34:42 34° SSE 22:36:12 50° E 22:40:28 10° NNE
Cosmos 2369 4.1 22:34:02 10° NW 22:39:26 45° WSW 22:40:56 37° SSW
COSMOS 2406 4.0 22:38:43 28° SSE 22:41:09 42° ESE 22:46:32 10° NE
Cosmos 1092 Rocket 3.9 22:35:08 10° NNW 22:41:16 70° W 22:44:06 33° S
Cosmos 1452 Rocket 4.1 22:41:37 28° WSW 22:44:07 50° NW 22:49:15 10° NNE
Cosmos 2084 Rocket 3.4 22:40:46 10° NW 22:44:58 81° NE 22:49:13 10° ESE
Cosmos 1726 Rocket 3.4 22:43:54 49° SSW 22:44:59 75° WNW 22:49:11 10° N
Cosmos 1486 Rocket 3.9 22:43:37 10° NNW 22:48:51 84° WSW 22:52:00 25° SSE
MSX 4.4 22:47:16 10° NNE 22:52:52 49° E 22:56:15 23° SSE
Cosmos 2360 Rocket 2.4 22:47:31 10° NNW 22:53:14 74° NE 22:58:54 10° SE
ATLAS 3B R/B 3.8 22:47:55 10° WNW 22:54:08 27° WSW 22:55:41 25° SW
Cosmos 1867 3.9 22:54:04 24° WSW 22:57:20 65° NW 23:02:48 10° NE
Cosmos 2333 Rocket 2.1 22:52:12 10° NW 22:57:52 74° WSW 23:02:07 18° SSE
Cosmos 1777 Rocket 3.9 22:52:59 10° NNW 22:58:18 82° WSW 23:01:48 22° SSE
Cosmos 1953 Rocket 4.1 22:55:08 10° NNW 22:59:21 43° W 23:00:18 37° SW
Resurs 1-4 Rocket 4.2 22:56:40 10° NE 23:00:33 20° E 23:04:24 10° SE
SL-08 ROCKET BODY 4.3 22:57:46 10° NNW 23:03:46 77° W 23:07:23 26° S
Cosmos 2082 Rocket 2.2 23:02:51 32° SW 23:05:41 85° WNW 23:11:28 10° NE
Cosmos 1833 Rocket 4.0 23:01:16 12° W 23:05:52 33° NW 23:10:57 10° NNE
Cosmos 724 4.4 23:03:06 31° SSW 23:06:03 69° SE 23:11:56 10° NE
NPP 4.3 23:00:54 10° NNE 23:06:07 48° E 23:09:33 21° SSE
CZ-2C R/B 4.4 23:01:48 10° N 23:06:15 29° WNW 23:09:16 18° WSW
Cosmos 2084 3.4 23:05:15 36° WSW 23:06:53 77° NNW 23:11:02 10° NE
Cosmos 909 Rocket 4.0 23:03:37 30° SSW 23:06:59 79° SE 23:13:30 10° NE
H-2A R/B 4.4 23:04:51 10° NE 23:08:06 17° E 23:11:24 10° SE
BREEZE-M R/B 4.4 23:03:22 10° W 23:09:09 44° SSW 23:15:26 10° SE
Cosmos 2322 Rocket 2.1 23:03:32 10° NW 23:09:13 87° WSW 23:14:53 10° SSE
Meteor 2-9 Rocket 4.2 23:04:00 10° NNW 23:09:21 77° ENE 23:13:35 17° SSE
Cosmos 2278 3.7 23:04:03 10° NW 23:09:45 68° WSW 23:14:17 16° SSE
BREEZE-M DEB (TANK) 3.7 23:12:58 22° SSE 23:12:58 22° SSE 23:15:44 10° ESE
Cosmos 1271 Rocket 3.8 23:15:08 22° SE 23:16:44 33° E 23:19:53 10° NNE
Cosmos 1437 Rocket 4.3 23:16:08 18° W 23:17:00 20° WNW 23:19:38 10° NNW
NOSS 3-4 (A) 3.7 23:13:03 10° NW 23:19:27 89° SW 23:27:04 10° SE
Cosmos 220 Rocket 4.4 23:17:56 30° SSE 23:19:34 48° ESE 23:23:28 10° NE
Cosmos 1634 Rocket 4.0 23:16:23 28° SSW 23:19:47 69° WNW 23:25:59 10° N
NOSS 3-4 (C) 3.7 23:13:35 10° NW 23:20:01 89° SSW 23:27:39 10° SE
Cosmos 1470 2.2 23:16:57 10° NNW 23:20:19 86° W 23:21:21 42° S
Cosmos-2242 3.1 23:20:02 36° SW 23:21:33 59° WNW 23:25:42 10° N
Cosmos 2219 Rocket 2.3 23:16:15 10° NNW 23:21:55 76° NE 23:27:34 10° SE
Cosmos 2237 Rocket 4.5 23:17:38 10° NNW 23:22:28 27° NNE 23:27:16 10° E
Meteor 2-2 Rocket 4.2 23:19:35 28° SSW 23:22:38 79° WNW 23:28:19 10° NNE
Cosmos 1607 4.0 23:20:33 27° SSW 23:24:02 72° SE 23:30:18 10° NE
SL-16 R/B 2.5 23:19:19 10° NW 23:24:44 46° WSW 23:27:50 24° S
SL-16 R/B 4.5 23:19:50 10° ESE 23:25:10 31° NE 23:30:31 10° N
KORONAS-FOTON 3.3 23:24:41 46° SSW 23:25:34 84° WNW 23:28:57 10° N
Cosmos 1707 2.2 23:26:32 48° W 23:26:47 50° WNW 23:29:39 10° N
Cosmos 1992 Rocket 4.3 23:25:21 26° SW 23:28:10 57° NW 23:33:20 10° NNE
MOZ.5/SAFIR/RUBIN 5/SL-8 3.8 23:24:34 14° SSE 23:28:37 81° ENE 23:33:18 10° NNW
ALOS 4.1 23:25:31 10° NE 23:29:15 24° E 23:32:58 10° SSE
Cosmos 44 Rocket 3.4 23:29:36 28° SW 23:32:21 86° SE 23:37:36 10° NE
ATLAS 2AS CENTAUR R/B 3.3 23:25:59 10° W 23:32:44 53° NNW 23:39:23 10° ENE
Meteor 1-11 Rocket 3.9 23:28:13 10° NNW 23:34:11 82° ENE 23:39:59 10° SSE
Cosmos 1766 4.2 23:33:34 10° NW 23:36:04 23° W 23:36:04 23° W
Cosmos 2221 2.5 23:35:54 25° S 23:38:15 72° E 23:42:24 10° NNE
Envisat 4.1 23:33:34 10° NNE 23:38:19 38° E 23:43:02 10° SSE
Aureole 1 Rocket 3.2 23:35:36 10° NNW 23:39:33 77° ENE 23:44:30 10° SSE
USA 234 3.2 23:33:04 10° ESE 23:39:36 73° SSW 23:46:11 10° WNW
ACS3 Solar Sail 2.2 23:35:04 10° N 23:40:53 52° WNW 23:44:43 22° SW
Meteor 1-14 Rocket 4.3 23:35:11 10° NNW 23:40:53 63° W 23:45:03 18° S
Iridium 4 Rocket 3.9 23:36:50 13° SSE 23:41:03 57° E 23:46:11 10° N
DMSP B5D2-2 4.1 23:36:05 10° SSE 23:41:15 81° ENE 23:46:29 10° NNW
DNEPR-1 R/B 4.1 23:36:50 10° NW 23:41:55 73° SW 23:48:06 10° SE
Gbstr 26 Del rocket 4.4 23:44:13 17° SSE 23:44:13 17° SSE 23:45:24 10° SSE
IDEFIX/ARIANE 42P 2.5 23:37:50 10° NNE 23:43:02 79° WNW 23:46:19 23° SSW
ADEOS Rocket 3.7 23:37:38 10° NNE 23:45:12 77° ESE 23:52:00 15° S
Cosmos 2279 Rocket 4.1 23:43:06 23° SSW 23:47:09 64° WNW 23:53:23 10° N
Cosmos 990 Rocket 3.9 23:43:13 10° NNW 23:48:17 61° WSW 23:53:21 10° S
Cosmos 1536 3.9 23:46:38 10° NW 23:49:32 23° W 23:50:04 22° WSW
Cosmos 2333 4.2 23:45:41 10° NW 23:51:16 61° WSW 23:56:52 10° SSE
BREEZE-M DEB (TANK) 4.3 23:36:18 10° W 23:53:43 52° SSW 23:58:16 10° SE
